Date String (YYYY-MM-DD hh:mm:ss) UTC,Instrument flags,Ambient pressure (hPa),Sample flow (lpm),Bypass flow (lpm),Sample temperature (°C),Ambient temperature (°C),ASC tube jacket temperature (°C),LED temperature (°C),Box temperature (°C),Sample RH (%),Span deviation,Mass concentration (μg/m³),Mass concentration (μg/m³),Mass concentration (μg/m³)
DateTimeUTC,F1_M11,P_M11,Q1_M11,Q2_M11,T1_M11,T2_M11,T3_M11,T4_M11,T5_M11,U1_M11,ZSPAN_M11,X0_M11,X2_M11,X1_M11
2022-06-28 22:00:00,,0830.1,4.99,0.00,29.2,27.5,00.0,37.8,31.0,14.4,0000.0,0012.12,0003.99,0003.38
2022-06-28 22:01:00,,0830.1,5.00,0.00,29.1,27.1,00.0,37.8,30.9,15.0,0000.0,0012.23,0004.01,0003.38
2022-06-28 22:02:00,,0830.1,4.99,0.00,29.1,27.1,00.0,37.7,30.9,15.2,0000.0,0011.84,0004.04,0003.38
2022-06-28 22:03:00,,0830.1,5.00,0.00,29.0,27.2,00.0,37.7,30.9,15.1,0000.0,0011.40,0004.02,0003.39
2022-06-28 22:04:00,,0830.1,5.01,0.00,29.0,27.4,00.0,37.8,30.9,14.7,0000.0,0011.07,0004.04,0003.41
2022-06-28 22:05:00,,0830.1,5.00,0.00,29.1,27.6,00.0,37.8,31.0,15.2,0000.0,0010.68,0004.04,0003.42
2022-06-28 22:06:00,,0830.1,5.00,0.00,29.1,27.8,00.0,37.8,31.1,15.4,0000.0,0010.46,0004.05,0003.43
2022-06-28 22:07:00,,0830.1,5.00,0.00,29.1,28.0,00.0,37.8,31.1,15.5,0000.0,0010.52,0004.07,0003.44
2022-06-28 22:08:00,,0830.1,4.99,0.00,29.2,28.2,00.0,37.8,31.2,15.5,0000.0,0010.20,0004.08,0003.46
2022-06-28 22:09:00,,0830.1,5.01,0.00,29.2,28.0,00.0,37.8,31.1,15.2,0000.0,0009.47,0004.09,0003.47
2022-06-28 22:10:00,,0830.1,5.01,0.00,29.1,27.3,00.0,37.8,30.9,14.9,0000.0,0008.66,0004.07,0003.47
2022-06-28 22:11:00,,0830.1,5.00,0.00,29.1,27.1,00.0,37.8,30.9,14.8,0000.0,0007.81,0004.05,0003.47
2022-06-28 22:12:00,,0830.1,5.00,0.00,29.1,27.1,00.0,37.8,30.9,14.7,0000.0,0007.59,0004.08,0003.48
2022-06-28 22:13:00,,0830.1,5.01,0.00,29.0,27.3,00.0,37.8,30.9,14.9,0000.0,0007.64,0004.09,0003.49
2022-06-28 22:14:00,,0830.1,5.00,0.00,29.1,27.5,00.0,37.8,31.0,15.3,0000.0,0008.12,0004.07,0003.48
2022-06-28 22:15:00,,0830.1,5.01,0.00,29.1,27.7,00.0,37.8,31.0,14.9,0000.0,0008.67,0004.06,0003.48
2022-06-28 22:16:00,,0830.1,5.01,0.00,29.1,27.9,00.0,37.8,31.1,15.2,0000.0,0008.74,0004.06,0003.48
2022-06-28 22:17:00,,0830.0,4.99,0.00,29.2,28.1,00.0,37.9,31.2,14.8,0000.0,0009.73,0004.10,0003.49
2022-06-28 22:18:00,,0830.1,5.01,0.00,29.2,28.2,00.0,37.9,31.2,14.8,0000.0,0010.69,0004.11,0003.50
2022-06-28 22:19:00,,0830.1,5.00,0.00,29.2,27.7,00.0,37.8,31.1,15.0,0000.0,0011.38,0004.14,0003.51
2022-06-28 22:20:00,,0830.1,4.99,0.00,29.1,27.2,00.0,37.8,30.9,15.2,0000.0,0011.79,0004.13,0003.51
2022-06-28 22:21:00,,0830.1,5.00,0.00,29.1,27.1,00.0,37.8,30.9,15.0,0000.0,0012.28,0004.14,0003.52
2022-06-28 22:22:00,,0830.1,5.00,0.00,29.1,27.2,00.0,37.8,30.9,15.0,0000.0,0012.58,0004.15,0003.52
2022-06-28 22:23:00,,0830.1,5.00,0.00,29.1,27.4,00.0,37.8,30.9,15.0,0000.0,0012.95,0004.13,0003.52
2022-06-28 22:24:00,,0830.1,5.00,0.00,29.1,27.6,00.0,37.8,31.0,14.8,0000.0,0013.14,0004.10,0003.52
2022-06-28 22:25:00,,0830.0,5.01,0.00,29.1,27.8,00.0,37.8,31.1,14.5,0000.0,0013.42,0004.13,0003.54
2022-06-28 22:26:00,,0830.1,5.01,0.00,29.1,28.0,00.0,37.8,31.2,14.5,0000.0,0013.11,0004.19,0003.55
2022-06-28 22:27:00,,0830.1,5.00,0.00,29.2,28.2,00.0,37.9,31.2,14.4,0000.0,0013.05,0004.21,0003.56
2022-06-28 22:28:00,,0830.1,5.00,0.00,29.2,27.7,00.0,37.8,31.1,14.7,0000.0,0012.34,0004.19,0003.56
2022-06-28 22:29:00,,0830.1,5.01,0.00,29.1,27.0,00.0,37.8,30.9,14.7,0000.0,0011.52,0004.19,0003.56
2022-06-28 22:30:00,,0830.0,5.00,0.00,29.1,27.0,00.0,37.8,30.9,14.8,0000.0,0011.28,0004.19,0003.56
2022-06-28 22:31:00,,0830.0,5.00,0.00,29.1,27.1,00.0,37.8,30.9,15.0,0000.0,0010.95,0004.20,0003.57
2022-06-28 22:32:00,,0830.0,5.00,0.00,29.0,27.3,00.0,37.8,30.9,15.0,0000.0,0010.86,0004.22,0003.58
2022-06-28 22:33:00,,0830.0,5.00,0.00,29.1,27.5,00.0,37.8,31.0,15.0,0000.0,0010.84,0004.23,0003.57
2022-06-28 22:34:00,,0829.9,5.01,0.00,29.1,27.8,00.0,37.8,31.1,14.7,0000.0,0010.99,0004.24,0003.58
2022-06-28 22:35:00,,0829.9,5.00,0.00,29.1,28.0,00.0,37.8,31.1,14.7,0000.0,0011.39,0004.24,0003.57
2022-06-28 22:36:00,,0830.2,4.99,0.00,29.2,28.1,00.0,37.9,31.2,14.7,0000.0,0010.85,0004.25,0003.57
2022-06-28 22:37:00,,0829.9,5.00,0.00,29.2,27.7,00.0,37.8,31.1,14.9,0000.0,0010.65,0004.22,0003.57
2022-06-28 22:38:00,,0829.9,5.01,0.00,29.1,27.0,00.0,37.8,30.9,15.9,0000.0,0011.01,0004.19,0003.56
2022-06-28 22:39:00,,0829.9,5.00,0.00,29.1,27.0,00.0,37.8,30.9,15.1,0000.0,0011.31,0004.23,0003.56
2022-06-28 22:40:00,,0829.9,5.00,0.00,29.1,27.1,00.0,37.8,30.9,14.5,0000.0,0011.24,0004.20,0003.55
2022-06-28 22:41:00,,0829.8,4.99,0.00,29.1,27.3,00.0,37.8,30.9,14.6,0000.0,0011.63,0004.18,0003.55
2022-06-28 22:42:00,,0829.8,4.99,0.00,29.1,27.5,00.0,37.8,31.0,14.4,0000.0,0011.87,0004.20,0003.55
2022-06-28 22:43:00,,0829.8,5.01,0.00,29.1,27.8,00.0,37.8,31.0,14.7,0000.0,0011.37,0004.21,0003.54
2022-06-28 22:44:00,,0829.8,5.00,0.00,29.1,28.0,00.0,37.8,31.1,15.6,0000.0,0011.72,0004.25,0003.55
2022-06-28 22:45:00,,0829.9,5.01,0.00,29.2,28.2,00.0,37.9,31.2,15.1,0000.0,0011.41,0004.24,0003.54
2022-06-28 22:46:00,,0829.9,4.99,0.00,29.2,27.8,00.0,37.8,31.1,15.6,0000.0,0010.65,0004.23,0003.54
2022-06-28 22:47:00,,0829.9,5.00,0.00,29.1,27.1,00.0,37.8,30.9,15.9,0000.0,0010.43,0004.19,0003.53
2022-06-28 22:48:00,,0829.9,5.01,0.00,29.1,27.0,00.0,37.8,30.9,15.9,0000.0,0010.49,0004.14,0003.53
2022-06-28 22:49:00,,0829.9,5.00,0.00,29.0,27.1,00.0,37.8,30.9,15.6,0000.0,0010.62,0004.15,0003.55
2022-06-28 22:50:00,,0829.8,5.00,0.00,29.0,27.3,00.0,37.8,30.9,15.5,0000.0,0010.38,0004.15,0003.55
2022-06-28 22:51:00,,0829.9,5.00,0.00,29.1,27.5,00.0,37.8,31.0,16.0,0000.0,0010.63,0004.14,0003.57
2022-06-28 22:52:00,,0829.9,5.00,0.00,29.1,27.7,00.0,37.8,31.0,15.8,0000.0,0010.81,0004.15,0003.57
2022-06-28 22:53:00,,0829.9,5.01,0.00,29.1,27.9,00.0,37.8,31.1,15.6,0000.0,0009.89,0004.12,0003.57
2022-06-28 22:54:00,,0829.9,4.99,0.00,29.2,28.1,00.0,37.9,31.2,15.2,0000.0,0009.88,0004.12,0003.58
2022-06-28 22:55:00,,0829.9,5.00,0.00,29.2,28.2,00.0,37.9,31.2,14.8,0000.0,0009.97,0004.08,0003.59
2022-06-28 22:56:00,,0829.9,5.02,0.00,29.2,27.5,00.0,37.8,31.0,14.8,0000.0,0010.06,0004.09,0003.60
2022-06-28 22:57:00,,0830.0,5.01,0.00,29.1,27.1,00.0,37.8,30.9,14.8,0000.0,0010.29,0004.10,0003.62
2022-06-28 22:58:00,,0829.8,4.99,0.00,29.1,27.1,00.0,37.8,30.9,15.0,0000.0,0010.49,0004.12,0003.63
2022-06-28 22:59:00,,0829.9,5.01,0.00,29.1,27.2,00.0,37.8,30.9,14.8,0000.0,0011.10,0004.14,0003.65
